Regional Weather Roundup
Issued by NWS

Home | Current Version | Previous Version | Graphics & Text | Print | Product List | Glossary Off
Versions: 1 2 3 4 5 6 7 8 9 10 11 12 13 14 15 16 17 18 19 20 21 22 23 24 25 26 27

000
ASUS45 KBOU 270607
RWRCO

WEATHER ROUNDUP FOR COLORADO
NATIONAL WEATHER SERVICE DENVER/BOULDER CO
1200 AM MDT MON MAR 27 2017

NOTE: "FAIR" INDICATES FEW OR NO CLOUDS BELOW 12000 FEET WITH NO
SIGNIFICANT WEATHER AND/OR OBSTRUCTIONS TO VISIBILITY.

COZ001>005-013-030-031-270700-
...NORTHWEST COLORADO...

CITY           SKY/WX    TMP DP  RH WIND       PRES   REMARKS
CRAIG          FAIR      30  23  75 CALM      29.99S
HAYDEN         FAIR      36  25  64 E7        29.98F
MEEKER         FAIR      33  25  72 CALM      29.99S
MOUNT WERNER   NOT AVBL
STEAMBOAT SPGS FAIR      33  28  80 CALM      29.99F
WALDEN         NOT AVBL
$$

COZ006>008-011-270700-
...WEST CENTRAL VALLEYS...

CITY           SKY/WX    TMP DP  RH WIND       PRES   REMARKS
GRAND JUNCTION FAIR      45  21  38 SE5       29.96R
MONTROSE       FAIR      40  34  79 SE9       30.02S
EAGLE          FAIR      36  25  64 E8        30.02F
RIFLE          FAIR      39  27  62 CALM      29.99R
DELTA          MOCLDY    46  32  58 NE6       30.00R
NUCLA          MOCLDY    41  32  70 E9        30.04S
$$

COZ017>023-064>068-270700-
...SOUTHWEST COLORADO...

CITY           SKY/WX    TMP DP  RH WIND       PRES   REMARKS
DURANGO        FAIR      40  28  62 NE6       30.03S
CORTEZ         FAIR      36  32  85 E7        30.02F
PAGOSA SPRINGS FAIR      36  33  89 CALM      30.07S
TELLURIDE      MOCLDY    33  27  81 E5        30.11F WCI  28
WOLF CREEK PAS HVY SNOW  23  23 100 S18G29    30.17R VSB<1/4 WCI   9
$$

COZ009-010-012-014-032>034-037-058>063-270700-
...CENTRAL COLORADO...

CITY           SKY/WX    TMP DP  RH WIND       PRES   REMARKS
ASPEN          FAIR      32  24  72 SW7       30.02F WCI  26
BUENA VISTA    FAIR      34  22  62 SE3       30.02R
COPPER MTN     NOT AVBL
BERTHOUD PASS  MOCLDY    18   5  57 NW21G32   30.07S WCI   1
COTTONWOOD PAS FAIR      36  19  51 W16G23    30.04S
GUNNISON       FAIR      31  27  85 CALM      30.06R
KREMMLING      FAIR      34  30  86 CALM      30.02S
LEADVILLE      FAIR      29  19  66 N8        30.05R WCI  21
MONARCH PASS   FOG       23  21  93 W32       30.19R VSB 1/4 WCI   5
SALIDA         FAIR      38  34  85 SE7       30.09R
SUNLIGHT       FAIR      23  21  93 SW9G16    30.12S WCI  13
WILKERSON PASS MOCLDY    27  23  86 SW6       30.09S FOG     WCI  20
$$

COZ069>075-270700-
...SAN LUIS VALLEY/SANGRE DE CRISTO MOUNTAINS...

CITY           SKY/WX    TMP DP  RH WIND       PRES   REMARKS
ALAMOSA        FAIR      33  30  88 S5        30.00S WCI  29
LA VETA PASS   NOT AVBL
SAGUACHE       FAIR      37  23  56 NW12G17   30.03R
$$

COZ035-036-038>040-270700-
...NORTHERN COLORADO FRONT RANGE...

CITY           SKY/WX    TMP DP  RH WIND       PRES   REMARKS
DENVER INTL AP MOCLDY    41  35  79 NE3       29.98S
DMNS CITY PARK   N/A     42  38  84 E2G9      29.98S
AURORA         MOCLDY    39  38  99 CALM      29.98F
FRONT RANGE AP FAIR      41  36  81 CALM      29.99R
ERIE MUNI ARPT CLOUDY    41  39  94 CALM      29.99R
BOULDER MUN AP CLOUDY    45  43  93 CALM      29.97S
CENTENNIAL     FAIR      41  36  82 CALM      29.98S
BROOMFIELD     MOCLDY    43  39  87 CALM      29.99S
FORT COLLINS   FAIR      40  36  86 CALM      29.98F
LONGMONT       CLOUDY    46  43  91 CALM      30.00S
$$

COZ041-046-047-076>085-087-088-270700-
...PIKES PEAK/PALMER DIVIDE AND SOUTHERN FOOTHILLS...

CITY           SKY/WX    TMP DP  RH WIND       PRES   REMARKS
COLO. SPRINGS  CLOUDY    42  38  85 SE8       30.00F
A. F. ACADEMY  CLOUDY    42  37  84 CALM      29.98F
SCHRIEVER AFB  CLOUDY    41  39  93 S6        30.00F
ELLICOTT         N/A    N/A N/A N/A SW6       29.99S
FALCON         CLOUDY    39  38  95 S5        30.01F
FORT CARSON    MOCLDY    42  40  93 SE7       29.98F
LIMON          FAIR      28  28 100 CALM      29.98S
MONUMENT HILL  CLOUDY    36  32  87 CALM      30.01S
TRINIDAD       FAIR      36  34  92 W7        30.00S
$$

COZ042>045-048>051-090-091-270700-
...NORTHEAST COLORADO...

CITY           SKY/WX    TMP DP  RH WIND       PRES   REMARKS
GREELEY ARPT   FAIR      35  29  78 W6        29.99S WCI  30
AKRON          FAIR      36  33  89 NW9       29.96S
BURLINGTON     FAIR      34  33  96 SW10      29.96S WCI  26
WRAY           FAIR      37  36  93 W7        29.95R
STERLING       FAIR      36  32  87 CALM      29.95S
HOLYOKE        FAIR      43  37  81 NW9       29.94S
FORT MORGAN    FAIR      37  32  82 N10       29.98S
$$

COZ086-089-092>099-270700-
...SOUTHEAST COLORADO...

CITY           SKY/WX    TMP DP  RH WIND       PRES   REMARKS
PUEBLO         FAIR      43  37  79 NE3       29.97F
LA JUNTA       FAIR      40  36  86 S3        29.97F
LAMAR          FAIR      28  26  92 W6        29.96F WCI  22
SPRINGFIELD      N/A     31  30  96 NW9       29.98S WCI  23
$$




USA.gov is the U.S. government's official web portal to all federal, state and local government web resources and services.